Tracking 35334 objects as of 12-Sep-2026
HD Live streaming from Space Station
objects crossing your sky now

TITAN 3A (TRUSS)

Track TITAN 3A (TRUSS) now!
10-day predictions
TITAN 3A (TRUSS) is classified as:


NORAD ID: 1001
Int'l Code: 1965-008A
Launch date: February 11, 1965
Source: United States (US)
Launch site: AIR FORCE EASTERN TEST RANGE (AFETR)
Your satellite tracking list
Your tracking list is empty




NASA's NSSDC Master Catalog

Two Line Element Set (TLE):
1 01001U 65008A   26255.30673063  .00000011  00000-0  38080-3 0  9993
2 01001  32.1440 260.1654 0016959 221.4605 138.4606  9.90721486230113
Source of the keplerian elements: AFSPC